CW2468 Weather Reports


time (UTC)temp
C
wind
direction
speed
KPH
gust
KPH
rain 1hr
cm
rain 24hr
cm
rain mn
cm
humidity
%
barometer
mb
20260506015513 21 133 1.6 1.6 0.00 0.00 0.00 41 1012.2
20260506015010 22 138 0.0 0.0 0.00 0.00 0.00 41 1012.4
20260506014507 22 199 0.0 3.2 0.00 0.00 0.00 41 1012.6
20260506014003 22 197 0.0 1.6 0.00 0.00 0.00 40 1012.6
20260506013501 22 189 1.6 4.8 0.00 0.00 0.00 40 1012.5
20260506012957 21 198 1.6 3.2 0.00 0.00 0.00 41 1012.7
20260506012453 21 180 0.0 3.2 0.00 0.00 0.00 41 1012.3
20260506011951 21 131 0.0 0.0 0.00 0.00 0.00 41 1012.2
20260506011448 22 131 0.0 0.0 0.00 0.00 0.00 41 1012.3
20260506010944 22 145 1.6 1.6 0.00 0.00 0.00 40 1012.3
20260506010444 22 124 0.0 3.2 0.00 0.00 0.00 39 1012.4
20260506005939 22 204 1.6 3.2 0.00 0.00 0.00 39 1012.5
20260506005437 22 142 0.0 0.0 0.00 0.00 0.00 39 1012.4
20260506004932 22 151 3.2 3.2 0.00 0.00 0.00 39 1012.4
20260506004431 22 140 0.0 1.6 0.00 0.00 0.00 38 1012.4
20260506003926 22 137 0.0 3.2 0.00 0.00 0.00 38 1012.6
20260506003423 22 136 0.0 4.8 0.00 0.00 0.00 38 1012.6
20260506002920 23 189 0.0 4.8 0.00 0.00 0.00 38 1012.5
20260506002416 23 127 3.2 4.8 0.00 0.00 0.00 37 1012.6
20260506001911 23 195 1.6 3.2 0.00 0.00 0.00 37 1012.5
20260506001408 23 209 4.8 8.0 0.00 0.00 0.00 37 1012.5
20260506000906 23 192 1.6 11.3 0.00 0.00 0.00 37 1012.5
20260506000403 23 166 4.8 4.8 0.00 0.00 0.00 37 1012.4
20260505235859 23 205 1.6 3.2 0.00 0.00 0.00 38 1012.3
20260505235358 23 126 1.6 12.9 0.00 0.00 0.00 37 1012.2
20260505234854 23 145 0.0 3.2 0.00 0.00 0.00 38 1012.2
20260505234352 23 164 3.2 3.2 0.00 0.00 0.00 37 1012.5
20260505233848 23 152 1.6 4.8 0.00 0.00 0.00 37 1012.3
20260505233346 24 180 1.6 3.2 0.00 0.00 0.00 37 1012.5
20260505232844 24 125 1.6 8.0 0.00 0.00 0.00 37 1012.4
20260505232342 25 203 0.0 3.2 0.00 0.00 0.00 37 1012.4
20260505231838 25 183 1.6 3.2 0.00 0.00 0.00 37 1012.3
20260505231335 25 140 1.6 4.8 0.00 0.00 0.00 37 1012.3
20260505230833 25 145 0.0 3.2 0.00 0.00 0.00 36 1012.2
20260505230330 25 143 4.8 8.0 0.00 0.00 0.00 35 1012.1
20260505225827 25 210 1.6 4.8 0.00 0.00 0.00 35 1012.2
20260505225325 26 163 0.0 1.6 0.00 0.00 0.00 37 1012.0
20260505224819 25 112 4.8 9.7 0.00 0.00 0.00 36 1012.0
20260505224317 26 141 0.0 1.6 0.00 0.00 0.00 37 1012.1
20260505223814 26 134 1.6 3.2 0.00 0.00 0.00 36 1011.9
20260505223311 25 138 1.6 3.2 0.00 0.00 0.00 37 1012.1
20260505222807 26 130 3.2 3.2 0.00 0.00 0.00 35 1012.0
20260505222305 25 136 1.6 8.0 0.00 0.00 0.00 36 1012.2
20260505221800 25 223 6.4 8.0 0.00 0.00 0.00 35 1012.2
20260505221257 25 159 1.6 3.2 0.00 0.00 0.00 35 1012.0
20260505220754 25 134 1.6 4.8 0.00 0.00 0.00 35 1012.0
20260505220251 26 198 4.8 11.3 0.00 0.00 0.00 33 1012.1
20260505215749 26 166 3.2 20.9 0.00 0.00 0.00 34 1012.0
20260505215247 26 187 4.8 8.0 0.00 0.00 0.00 33 1011.8
20260505214744 26 126 3.2 4.8 0.00 0.00 0.00 34 1012.1
20260505214242 26 209 3.2 8.0 0.00 0.00 0.00 32 1012.4
20260505213739 27 153 1.6 9.7 0.00 0.00 0.00 34 1012.0
20260505213236 26 219 4.8 11.3 0.00 0.00 0.00 33 1012.0
20260505212732 26 217 3.2 12.9 0.00 0.00 0.00 33 1012.2
20260505212229 25 134 1.6 8.0 0.00 0.00 0.00 35 1012.3
20260505211726 26 173 4.8 16.1 0.00 0.00 0.00 34 1012.3
20260505211224 26 146 1.6 14.5 0.00 0.00 0.00 35 1012.2
20260505210720 26 199 1.6 9.7 0.00 0.00 0.00 34 1012.3
20260505210217 27 167 3.2 4.8 0.00 0.00 0.00 34 1012.2
20260505205714 26 136 1.6 4.8 0.00 0.00 0.00 34 1012.1
20260505205212 26 155 4.8 9.7 0.00 0.00 0.00 34 1012.4
20260505204708 26 206 16.1 22.5 0.00 0.00 0.00 34 1012.5
20260505204206 26 224 3.2 9.7 0.00 0.00 0.00 35 1012.6
20260505203658 27 206 6.4 9.7 0.00 0.00 0.00 35 1012.5
20260505203154 26 177 3.2 11.3 0.00 0.00 0.00 35 1012.7
20260505202650 26 150 4.8 12.9 0.00 0.00 0.00 35 1012.8
20260505202146 27 89 1.6 8.0 0.00 0.00 0.00 33 1012.7
20260505201643 26 232 4.8 14.5 0.00 0.00 0.00 34 1012.8
20260505201141 26 217 6.4 14.5 0.00 0.00 0.00 35 1012.8
20260505200639 26 222 3.2 8.0 0.00 0.00 0.00 34 1013.0
20260505200136 26 158 3.2 8.0 0.00 0.00 0.00 34 1013.0
20260505195632 26 209 6.4 11.3 0.00 0.00 0.00 35 1013.2
20260505195129 26 147 0.0 8.0 0.00 0.00 0.00 34 1013.4
20260505194626 26 154 1.6 8.0 0.00 0.00 0.00 35 1013.3
20260505194121 25 150 1.6 3.2 0.00 0.00 0.00 35 1013.5
20260505193619 25 119 6.4 9.7 0.00 0.00 0.00 36 1013.4
20260505193116 26 136 1.6 4.8 0.00 0.00 0.00 34 1013.5
20260505192615 25 188 3.2 12.9 0.00 0.00 0.00 36 1013.5
20260505192111 25 193 3.2 4.8 0.00 0.00 0.00 35 1013.3
20260505191610 25 210 3.2 11.3 0.00 0.00 0.00 38 1013.5
20260505191107 25 111 1.6 4.8 0.00 0.00 0.00 37 1013.7
20260505190602 25 140 3.2 9.7 0.00 0.00 0.00 38 1013.5
20260505190058 25 230 4.8 8.0 0.00 0.00 0.00 38 1013.7
20260505185555 25 152 1.6 3.2 0.00 0.00 0.00 37 1013.6
20260505185051 24 151 1.6 8.0 0.00 0.00 0.00 37 1013.5
20260505184548 24 242 8.0 12.9 0.00 0.00 0.00 38 1013.9
20260505184045 25 193 12.9 16.1 0.00 0.00 0.00 38 1013.8
20260505183541 25 224 6.4 11.3 0.00 0.00 0.00 37 1013.6
20260505183039 25 99 1.6 4.8 0.00 0.00 0.00 37 1013.9
20260505182535 25 136 3.2 17.7 0.00 0.00 0.00 38 1014.0
20260505182032 25 212 4.8 8.0 0.00 0.00 0.00 37 1013.9
20260505181529 25 63 3.2 9.7 0.00 0.00 0.00 38 1014.3
20260505181026 24 145 0.0 8.0 0.00 0.00 0.00 39 1014.3
20260505180521 24 219 3.2 11.3 0.00 0.00 0.00 39 1014.4
20260505180020 24 151 1.6 9.7 0.00 0.00 0.00 39 1014.7
20260505175514 24 208 8.0 14.5 0.00 0.00 0.00 39 1014.6
20260505175012 24 190 4.8 8.0 0.00 0.00 0.00 39 1014.8
20260505174509 24 246 6.4 14.5 0.00 0.00 0.00 39 1014.7
20260505174005 25 217 6.4 14.5 0.00 0.00 0.00 38 1014.7
20260505173501 25 114 4.8 9.7 0.00 0.00 0.00 40 1015.1
20260505172958 23 89 6.4 14.5 0.00 0.00 0.00 39 1015.2
20260505172457 24 110 4.8 12.9 0.00 0.00 0.00 40 1015.0
20260505171957 24 111 4.8 4.8 0.00 0.00 0.00 43 1015.0
20260505171453 24 141 4.8 8.0 0.00 0.00 0.00 39 1015.0
20260505170950 25 188 6.4 11.3 0.00 0.00 0.00 38 1015.1
20260505170446 23 135 0.0 9.7 0.00 0.00 0.00 40 1015.1
20260505165942 23 146 3.2 4.8 0.00 0.00 0.00 40 1014.8
20260505165438 24 182 3.2 14.5 0.00 0.00 0.00 39 1015.1
20260505164934 23 189 3.2 8.0 0.00 0.00 0.00 39 1015.0
20260505164431 24 233 6.4 14.5 0.00 0.00 0.00 41 1014.9
20260505163928 24 292 6.4 9.7 0.00 0.00 0.00 40 1014.9
20260505163427 23 208 3.2 17.7 0.00 0.00 0.00 41 1015.0
20260505162926 23 136 1.6 9.7 0.00 0.00 0.00 41 1015.0
20260505162421 23 146 3.2 4.8 0.00 0.00 0.00 42 1014.9
20260505161918 23 207 4.8 12.9 0.00 0.00 0.00 42 1014.9
20260505161415 23 151 3.2 4.8 0.00 0.00 0.00 45 1015.0
20260505160912 22 166 4.8 11.3 0.00 0.00 0.00 46 1015.2
20260505160410 23 142 3.2 8.0 0.00 0.00 0.00 45 1015.4
20260505153349 22 134 3.2 11.3 0.00 0.00 0.00 45 1015.3
20260505152846 22 127 3.2 4.8 0.00 0.00 0.00 46 1015.3
20260505152338 22 213 6.4 11.3 0.00 0.00 0.00 48 1015.3
20260505151837 22 194 8.0 9.7 0.00 0.00 0.00 49 1015.2
20260505151334 22 199 0.0 9.7 0.00 0.00 0.00 51 1015.3
20260505150831 21 122 1.6 3.2 0.00 0.00 0.00 53 1015.1
20260505150329 21 151 3.2 8.0 0.00 0.00 0.00 53 1015.5
20260505140247 18 199 3.2 3.2 0.00 0.00 0.00 63 1015.2
20260505130211 15 174 0.0 1.6 0.00 0.00 0.00 73 1014.8
20260505124701 13 174 0.0 0.0 0.00 0.00 0.00 79 1014.8
20260505124157 13 174 0.0 0.0 0.00 0.00 0.00 80 1014.9
20260505123653 12 174 0.0 0.0 0.00 0.00 0.00 81 1014.8
20260505123150 12 174 0.0 0.0 0.00 0.00 0.00 81 1014.7
20260505122647 12 174 0.0 0.0 0.00 0.00 0.00 83 1014.7
20260505122144 12 174 0.0 0.0 0.00 0.00 0.00 84 1014.4
20260505121641 12 174 0.0 0.0 0.00 0.00 0.00 84 1014.3
20260505121137 11 174 0.0 0.0 0.00 0.00 0.00 84 1014.3
20260505120634 11 174 0.0 0.0 0.00 0.00 0.00 85 1014.4
20260505120130 11 174 0.0 0.0 0.00 0.00 0.00 85 1014.6
20260505115624 11 174 0.0 0.0 0.00 0.00 0.00 86 1014.6
20260505115121 11 174 0.0 0.0 0.00 0.00 0.00 86 1014.4
20260505114612 10 174 0.0 0.0 0.00 0.00 0.00 86 1014.4
20260505114109 10 174 0.0 0.0 0.00 0.00 0.00 86 1014.2
20260505113605 10 174 0.0 0.0 0.00 0.00 0.00 86 1014.1
20260505113102 10 174 0.0 0.0 0.00 0.00 0.00 86 1013.9
20260505112558 10 173 0.0 1.6 0.00 0.00 0.00 86 1013.9
20260505112056 10 173 0.0 1.6 0.00 0.00 0.00 86 1013.8
20260505111549 10 173 0.0 0.0 0.00 0.00 0.00 86 1013.8
20260505111046 10 173 0.0 0.0 0.00 0.00 0.00 86 1013.8
20260505110543 10 173 0.0 0.0 0.00 0.00 0.00 86 1013.6
20260505102009 10 173 0.0 1.6 0.00 0.00 0.00 84 1013.6
20260505101508 10 173 0.0 0.0 0.00 0.00 0.00 84 1013.5
20260505101004 10 173 0.0 0.0 0.00 0.00 0.00 84 1013.8
20260505100501 10 173 0.0 1.6 0.00 0.00 0.00 84 1013.8
20260505095957 10 173 1.6 1.6 0.00 0.00 0.00 83 1014.0
20260505095454 11 173 0.0 0.0 0.00 0.00 0.00 83 1013.8
20260505094950 11 173 0.0 1.6 0.00 0.00 0.00 83 1014.0
20260505094447 11 173 1.6 1.6 0.00 0.00 0.00 83 1013.8
20260505093943 11 173 0.0 0.0 0.00 0.00 0.00 83 1013.7
20260505093440 11 173 0.0 0.0 0.00 0.00 0.00 82 1013.6
20260505092937 11 173 0.0 1.6 0.00 0.00 0.00 82 1013.5
20260505092435 11 173 0.0 3.2 0.00 0.00 0.00 81 1013.8
20260505091932 11 159 0.0 3.2 0.00 0.00 0.00 83 1013.7
20260505091430 11 159 0.0 0.0 0.00 0.00 0.00 83 1013.7
20260505090927 11 159 0.0 0.0 0.00 0.00 0.00 83 1013.9
20260505090426 11 159 0.0 0.0 0.00 0.00 0.00 83 1013.9
20260505085922 11 159 0.0 0.0 0.00 0.00 0.00 83 1013.9
20260505085420 11 159 0.0 0.0 0.00 0.00 0.00 83 1014.0
20260505084918 11 159 0.0 0.0 0.00 0.00 0.00 82 1014.0
20260505084416 11 159 0.0 0.0 0.00 0.00 0.00 82 1014.0
20260505083914 11 159 0.0 0.0 0.00 0.00 0.00 83 1014.0
20260505083411 11 159 0.0 1.6 0.00 0.00 0.00 83 1013.9
20260505082907 11 159 0.0 0.0 0.00 0.00 0.00 82 1013.8
20260505082403 11 159 0.0 0.0 0.00 0.00 0.00 82 1013.8
20260505081900 11 159 0.0 0.0 0.00 0.00 0.00 82 1013.8
20260505081357 11 159 0.0 0.0 0.00 0.00 0.00 82 1014.0
20260505080853 11 159 0.0 0.0 0.00 0.00 0.00 82 1013.9
20260505080350 11 159 0.0 0.0 0.00 0.00 0.00 82 1014.0
20260505075845 11 159 0.0 0.0 0.00 0.00 0.00 81 1014.0
20260505075342 11 159 0.0 0.0 0.00 0.00 0.00 81 1013.9
20260505074839 11 159 0.0 0.0 0.00 0.00 0.00 81 1013.9
20260505074336 11 159 0.0 0.0 0.00 0.00 0.00 81 1013.8
20260505073834 11 160 0.0 0.0 0.00 0.00 0.00 81 1013.8
20260505073332 11 160 0.0 0.0 0.00 0.00 0.00 81 1013.6
20260505072829 11 160 0.0 0.0 0.00 0.00 0.00 80 1013.8
20260505072325 11 160 0.0 0.0 0.00 0.00 0.00 80 1013.7
20260505071821 11 160 0.0 0.0 0.00 0.00 0.00 80 1013.8
20260505071317 11 160 0.0 0.0 0.00 0.00 0.00 80 1013.6
20260505070815 11 160 0.0 0.0 0.00 0.00 0.00 80 1013.8
20260505070312 11 160 0.0 0.0 0.00 0.00 0.00 79 1013.9
20260505065807 11 160 0.0 0.0 0.00 0.00 0.00 79 1013.7
20260505065304 11 160 0.0 0.0 0.00 0.00 0.00 79 1013.9
20260505064801 11 160 0.0 0.0 0.00 0.00 0.00 79 1013.8
20260505064258 11 160 0.0 0.0 0.00 0.00 0.00 78 1013.8
20260505063756 11 160 0.0 0.0 0.00 0.00 0.00 78 1014.0
20260505063252 11 160 0.0 0.0 0.00 0.00 0.00 78 1014.0
20260505062749 12 160 0.0 0.0 0.00 0.00 0.00 78 1013.8
20260505062246 12 160 0.0 1.6 0.00 0.00 0.00 77 1013.9
20260505061742 12 160 0.0 0.0 0.00 0.00 0.00 77 1013.9
20260505061240 12 160 0.0 0.0 0.00 0.00 0.00 77 1014.0
20260505060737 12 160 0.0 0.0 0.00 0.00 0.00 77 1014.0
20260505060234 12 161 0.0 0.0 0.00 0.00 0.00 76 1014.0
20260505055724 12 161 0.0 0.0 0.00 0.00 0.00 76 1014.0
20260505055221 12 161 0.0 1.6 0.00 0.00 0.00 76 1013.9
20260505054718 12 161 0.0 0.0 0.00 0.00 0.00 75 1014.0
20260505054210 12 161 0.0 1.6 0.00 0.00 0.00 74 1014.1
20260505053708 12 161 0.0 0.0 0.00 0.00 0.00 74 1014.1
20260505053204 12 161 0.0 0.0 0.00 0.00 0.00 74 1014.2
20260505052701 12 161 0.0 0.0 0.00 0.00 0.00 74 1014.2
20260505052153 12 161 0.0 0.0 0.00 0.00 0.00 73 1014.1
20260505051649 12 161 0.0 0.0 0.00 0.00 0.00 73 1014.0
20260505051148 12 161 0.0 0.0 0.00 0.00 0.00 72 1014.1
20260505050645 12 161 0.0 1.6 0.00 0.00 0.00 72 1014.2
20260505050143 12 161 0.0 0.0 0.00 0.00 0.00 71 1014.1
20260505041613 13 161 0.0 0.0 0.00 0.00 0.00 69 1014.2
20260505041110 13 161 0.0 1.6 0.00 0.00 0.00 68 1014.1
20260505040607 13 161 0.0 0.0 0.00 0.00 0.00 68 1013.8
20260505040104 14 161 0.0 0.0 0.00 0.00 0.00 69 1013.9
20260505035601 14 161 0.0 0.0 0.00 0.00 0.00 69 1014.0
20260505035057 13 161 0.0 0.0 0.00 0.00 0.00 67 1013.9
20260505034554 14 161 0.0 0.0 0.00 0.00 0.00 67 1014.1
20260505034050 14 161 1.6 1.6 0.00 0.00 0.00 67 1014.2
20260505033547 14 161 0.0 0.0 0.00 0.00 0.00 66 1014.2
20260505033046 14 161 0.0 1.6 0.00 0.00 0.00 65 1014.2
20260505032544 15 161 0.0 0.0 0.00 0.00 0.00 66 1014.0
20260505032040 15 161 0.0 0.0 0.00 0.00 0.00 65 1014.2
20260505031537 15 161 0.0 0.0 0.00 0.00 0.00 64 1014.1
20260505031033 15 161 0.0 1.6 0.00 0.00 0.00 64 1013.9
20260505030530 15 161 0.0 0.0 0.00 0.00 0.00 64 1014.1
20260505030026 15 161 0.0 0.0 0.00 0.00 0.00 63 1014.2
20260505025522 15 161 0.0 0.0 0.00 0.00 0.00 63 1014.1
20260505025021 15 161 0.0 0.0 0.00 0.00 0.00 63 1014.1
20260505024518 15 161 0.0 0.0 0.00 0.00 0.00 62 1014.1
20260505024015 15 161 0.0 1.6 0.00 0.00 0.00 62 1014.0
20260505023512 15 161 0.0 0.0 0.00 0.00 0.00 61 1014.0
20260505023010 15 161 0.0 0.0 0.00 0.00 0.00 61 1014.1
20260505022507 16 161 0.0 0.0 0.00 0.00 0.00 61 1013.7
20260505022004 16 161 0.0 0.0 0.00 0.00 0.00 59 1013.9
20260505021500 16 161 0.0 0.0 0.00 0.00 0.00 60 1013.7
20260505020956 16 161 0.0 0.0 0.00 0.00 0.00 59 1013.9
20260505020452 16 161 0.0 0.0 0.00 0.00 0.00 59 1013.9
20260505015948 16 161 0.0 1.6 0.00 0.00 0.00 59 1013.9